Home   Weather   35°07'N, 80°59'W   Past weeks
Flag for USA

Past Weather in 35°07'N, 80°59'W, USA — Yesterday and Last 2 Weeks

Now
71 °F

Passing clouds.


Feels Like: 76 °F
Forecast: 77 / 59 °F
Wind: 5 mph from Northeast

Location: Charlotte / Douglas International Airport

Current Time: Sep 18, 2019 at 8:23:02 pm

Latest Report: Sep 18, 2019 at 7:52 pm


Visibility: 10 mi

Pressure: 30.11 "Hg

Humidity: 61%

Dew Point: 57 °F

Location of 35°07'N, 80°59'WLocation

Past Weather in 35°07'N, 80°59'W — Graph

°F

35°07'N, 80°59'W Temperature Yesterday

Maximum temperature yesterday: 93 °F (at 1:52 pm)
Minimum temperature yesterday: 69 °F (at 2:52 am)
Average temperature yesterday: 81 °F

High & Low Weather Summary for the Past Weeks

 TemperatureHumidityPressure
High98 °F (Sep 12, 2:52 pm)93% (Sep 15, 2:52 am)30.32 "Hg (Sep 15, 2:52 am)
Low65 °F (Sep 7, 5:52 am)26% (Sep 6, 5:52 pm)29.78 "Hg (Sep 6, 3:52 pm)
Average81 °F64%30.05 "Hg
* Reported Sep 3 6:52 pm — Sep 18 6:52 pm, 35°07'N, 80°59'W. Weather by CustomWeather, © 2019

Note: Actual official high and low records may vary slightly from our data, if they occured in-between our weather recording intervals... More about our weather records

Advertising

35°07'N, 80°59'W Weather History for the Previous 24 Hours

Scroll right to see more
 ConditionsComfort  
Time TempWeatherWind HumidityBarometerVisibility
6:52 pm
Wed, Sep 18
74 °FBroken clouds.6 mph53%30.11 "Hg10 mi
5:52 pm77 °FPartly sunny.6 mph48%30.11 "Hg10 mi
4:52 pm78 °FPartly sunny.5 mph45%30.11 "Hg10 mi
3:52 pm77 °FPartly sunny.6 mph45%30.12 "Hg10 mi
2:52 pm78 °FBroken clouds.6 mph45%30.13 "Hg10 mi
1:52 pm78 °FBroken clouds.7 mph43%30.14 "Hg10 mi
12:52 pm75 °FMostly cloudy.10 mph48%30.14 "Hg10 mi
11:52 am74 °FMostly cloudy.12 mph50%30.14 "Hg10 mi
10:52 am75 °FBroken clouds.10 mph50%30.13 "Hg10 mi
9:52 am72 °FPartly sunny.13 mph55%30.13 "Hg10 mi
8:52 am71 °FPartly sunny.9 mph57%30.12 "Hg10 mi
7:52 am71 °FPartly sunny.9 mph57%30.11 "Hg10 mi
6:52 am71 °FOvercast.8 mph57%30.09 "Hg10 mi
5:52 am71 °FMostly cloudy.7 mph76%30.08 "Hg10 mi
4:52 am72 °FMostly cloudy.10 mph73%30.07 "Hg10 mi
3:52 am73 °FMostly cloudy.13 mph74%30.06 "Hg10 mi
2:52 am73 °FPassing clouds.13 mph74%30.05 "Hg10 mi
1:52 am74 °FMostly cloudy.14 mph74%30.05 "Hg10 mi
12:52 am75 °FPassing clouds.13 mph74%30.03 "Hg10 mi
11:52 pm
Tue, Sep 17
78 °FPassing clouds.14 mph64%30.01 "Hg10 mi
10:52 pm81 °FPassing clouds.10 mph56%30.00 "Hg10 mi
9:52 pm83 °FPartly cloudy.9 mph53%29.98 "Hg10 mi
8:52 pm85 °FPassing clouds.9 mph50%29.96 "Hg10 mi
Weather by CustomWeather, © 2019

See weather overview